User: anonymous   Login
Location: Unspecified
(0.0000°N, 0.0000°E)
Time: 00:14:58
(UTC+00:00)
Language:

OBJECT F - Orbit

View from above orbital plane
View from above orbital plane
View from above satellite
View from above satellite

Ground track
Ground track

The orbit data is extracted from the following two-line orbital elements,

1 43116U 18004F   21207.74881600  .00002379  00000-0  97162-4 0  9994
2 43116  97.4124 281.8599 0010517  68.5689 291.6670 15.25336219196635
Epoch (UTC): 26 July 2021 17:58:17
Eccentricity: 0.0010517
inclination: 97.4124°
perigee height: 482 km
apogee height: 497 km
right ascension of ascending node: 281.8599°
argument of perigee: 68.5689°
revolutions per day: 15.25336219
mean anomaly at epoch: 291.6670°
orbit number at epoch: 19663

The dashed part of the orbit path shows where the satellite is in the earth's shadow,  

DLR